TimeCDT,TemperatureF,Dew PointF,Humidity,Sea Level PressureIn,VisibilityMPH,Wind Direction,Wind SpeedMPH,Gust SpeedMPH,PrecipitationIn,Events,Conditions,WindDirDegrees,DateUTC
12:15 AM,37.8,32.0,80,30.21,10.0,NNW,4.6,-,N/A,Snow,Light Snow,340,2012-10-28 05:15:00
12:35 AM,37.8,32.2,80,30.21,10.0,North,4.6,-,N/A,Snow,Light Snow,350,2012-10-28 05:35:00
12:55 AM,37.4,32.0,81,30.21,10.0,North,4.6,-,N/A,Snow,Light Snow,360,2012-10-28 05:55:00
1:15 AM,36.9,32.0,83,30.21,10.0,North,5.8,-,N/A,Snow,Light Snow,350,2012-10-28 06:15:00
1:35 AM,37.2,32.0,81,30.21,10.0,North,5.8,-,N/A,Snow,Light Snow,350,2012-10-28 06:35:00
1:55 AM,37.4,32.0,81,30.21,10.0,North,6.9,-,N/A,Snow,Light Snow,350,2012-10-28 06:55:00
2:15 AM,37.0,31.6,81,30.21,10.0,North,3.5,-,N/A,Snow,Light Snow,360,2012-10-28 07:15:00
2:35 AM,37.0,31.5,80,30.21,10.0,North,5.8,-,N/A,Snow,Light Snow,360,2012-10-28 07:35:00
2:55 AM,37.4,31.1,78,30.21,10.0,North,6.9,-,N/A,Snow,Light Snow,350,2012-10-28 07:55:00
3:15 AM,37.4,30.9,77,30.20,10.0,North,8.1,-,N/A,Snow,Light Snow,360,2012-10-28 08:15:00
3:35 AM,37.4,30.7,77,30.20,10.0,North,8.1,-,N/A,Snow,Light Snow,360,2012-10-28 08:35:00
3:55 AM,37.2,30.6,77,30.20,10.0,North,6.9,-,N/A,Snow,Light Snow,350,2012-10-28 08:55:00
4:15 AM,36.7,30.4,78,30.20,10.0,North,4.6,-,N/A,Snow,Light Snow,10,2012-10-28 09:15:00
4:35 AM,36.7,30.6,78,30.20,10.0,North,8.1,-,N/A,Snow,Light Snow,360,2012-10-28 09:35:00
4:55 AM,36.7,30.6,78,30.20,10.0,NNW,5.8,-,N/A,Snow,Light Snow,340,2012-10-28 09:55:00
5:15 AM,36.7,30.2,77,30.20,10.0,North,5.8,-,N/A,Snow,Light Snow,10,2012-10-28 10:15:00
5:35 AM,36.5,30.2,78,30.21,10.0,North,5.8,-,N/A,Snow,Light Snow,360,2012-10-28 10:35:00
5:55 AM,36.5,30.0,77,30.21,7.0,North,4.6,-,N/A,Snow,Light Snow,360,2012-10-28 10:55:00
6:15 AM,36.5,30.0,77,30.20,10.0,North,8.1,-,N/A,Snow,Light Snow,360,2012-10-28 11:15:00
6:35 AM,36.5,30.0,77,30.20,10.0,NNW,6.9,-,N/A,Snow,Light Snow,340,2012-10-28 11:35:00
6:55 AM,36.1,30.2,79,30.21,10.0,NNW,5.8,-,N/A,Snow,Light Snow,330,2012-10-28 11:55:00
7:15 AM,36.1,30.2,79,30.21,7.0,North,5.8,-,N/A,Snow,Light Snow,350,2012-10-28 12:15:00
7:35 AM,36.0,30.0,79,30.21,7.0,North,8.1,-,N/A,Snow,Light Snow,360,2012-10-28 12:35:00
7:55 AM,35.8,30.0,80,30.21,7.0,North,8.1,-,N/A,Snow,Light Snow,360,2012-10-28 12:55:00
8:15 AM,36.0,30.2,80,30.22,7.0,North,6.9,-,N/A,Snow,Light Snow,360,2012-10-28 13:15:00
8:35 AM,37.4,30.2,75,30.22,7.0,North,6.9,-,N/A,Snow,Light Snow,360,2012-10-28 13:35:00
8:55 AM,37.6,31.5,79,30.23,7.0,North,10.4,-,N/A,Snow,Light Snow,360,2012-10-28 13:55:00
9:15 AM,39.2,32.0,75,30.22,10.0,North,9.2,-,N/A,,Unknown,360,2012-10-28 14:15:00
9:35 AM,40.3,32.2,73,30.22,10.0,NNW,8.1,-,N/A,,Unknown,340,2012-10-28 14:35:00
9:55 AM,41.5,32.7,71,30.22,10.0,North,6.9,-,N/A,,Unknown,10,2012-10-28 14:55:00
10:15 AM,43.3,33.1,67,30.22,10.0,North,5.8,-,N/A,,Unknown,360,2012-10-28 15:15:00
10:35 AM,44.6,32.9,64,30.22,10.0,NNE,8.1,-,N/A,,Unknown,30,2012-10-28 15:35:00
10:55 AM,45.7,33.4,62,30.22,10.0,NNE,5.8,-,N/A,Rain,Rain,30,2012-10-28 15:55:00
11:15 AM,47.3,33.8,59,30.22,10.0,North,6.9,-,N/A,,Clear,10,2012-10-28 16:15:00
11:35 AM,48.2,33.8,58,30.22,7.0,North,6.9,-,N/A,,Clear,360,2012-10-28 16:35:00
11:55 AM,48.7,33.6,56,30.22,10.0,North,12.7,-,N/A,,Scattered Clouds,360,2012-10-28 16:55:00
12:15 PM,49.3,34.0,56,30.21,10.0,North,12.7,17.3,N/A,,Scattered Clouds,360,2012-10-28 17:15:00
12:35 PM,48.7,32.9,54,30.21,10.0,NNE,6.9,17.3,N/A,,Mostly Cloudy,30,2012-10-28 17:35:00
12:55 PM,49.5,32.4,52,30.20,10.0,NE,8.1,-,N/A,,Overcast,40,2012-10-28 17:55:00
1:15 PM,48.6,32.5,54,30.20,10.0,North,10.4,17.3,N/A,,Mostly Cloudy,350,2012-10-28 18:15:00
1:35 PM,48.0,32.2,54,30.20,10.0,North,10.4,19.6,N/A,,Overcast,360,2012-10-28 18:35:00
1:55 PM,48.2,32.7,55,30.19,10.0,North,10.4,16.1,N/A,,Overcast,10,2012-10-28 18:55:00
2:15 PM,48.2,32.0,54,30.19,10.0,North,8.1,16.1,N/A,,Overcast,360,2012-10-28 19:15:00
2:35 PM,47.7,32.4,55,30.19,10.0,North,10.4,-,N/A,,Overcast,360,2012-10-28 19:35:00
2:55 PM,48.0,32.0,54,30.19,10.0,North,11.5,20.7,N/A,,Overcast,360,2012-10-28 19:55:00
3:15 PM,47.8,32.2,55,30.19,10.0,NNE,9.2,23.0,N/A,,Overcast,30,2012-10-28 20:15:00
3:35 PM,49.3,32.5,53,30.19,10.0,North,12.7,20.7,N/A,,Overcast,360,2012-10-28 20:35:00
3:55 PM,48.9,32.2,52,30.20,10.0,North,10.4,19.6,N/A,,Overcast,10,2012-10-28 20:55:00
4:15 PM,47.1,32.5,57,30.20,10.0,North,11.5,17.3,N/A,,Overcast,360,2012-10-28 21:15:00
4:35 PM,46.6,31.3,55,30.20,10.0,NNW,9.2,18.4,N/A,,Overcast,340,2012-10-28 21:35:00
4:55 PM,47.5,29.1,49,30.20,10.0,North,10.4,-,N/A,,Overcast,350,2012-10-28 21:55:00
5:15 PM,46.2,28.4,50,30.19,10.0,NNW,11.5,20.7,N/A,,Mostly Cloudy,340,2012-10-28 22:15:00
5:35 PM,46.4,29.8,53,30.19,7.0,NNW,6.9,-,N/A,,Mostly Cloudy,330,2012-10-28 22:35:00
5:55 PM,45.0,31.5,59,30.19,10.0,NNW,8.1,-,N/A,,Scattered Clouds,330,2012-10-28 22:55:00
6:15 PM,44.6,32.0,61,30.19,10.0,NNW,6.9,-,N/A,,Scattered Clouds,330,2012-10-28 23:15:00
6:35 PM,43.9,32.0,63,30.20,10.0,NW,6.9,-,N/A,,Mostly Cloudy,320,2012-10-28 23:35:00
6:55 PM,42.4,32.5,68,30.20,10.0,NW,5.8,-,N/A,,Mostly Cloudy,310,2012-10-28 23:55:00
7:15 PM,41.9,33.1,71,30.21,10.0,NNW,5.8,-,N/A,,Unknown,330,2012-10-29 00:15:00
7:35 PM,43.0,32.0,65,30.21,10.0,North,6.9,-,N/A,,Unknown,360,2012-10-29 00:35:00
7:55 PM,42.8,30.7,62,30.21,10.0,North,6.9,-,N/A,,Unknown,10,2012-10-29 00:55:00
8:15 PM,42.8,29.8,60,30.21,10.0,North,10.4,-,N/A,,Unknown,360,2012-10-29 01:15:00
8:35 PM,42.8,30.2,61,30.21,10.0,North,9.2,-,N/A,,Unknown,360,2012-10-29 01:35:00
8:55 PM,41.9,29.5,61,30.21,10.0,North,8.1,-,N/A,,Unknown,360,2012-10-29 01:55:00
9:15 PM,41.2,29.7,64,30.21,10.0,North,8.1,-,N/A,,Unknown,360,2012-10-29 02:15:00
9:35 PM,41.0,29.8,64,30.21,10.0,North,8.1,-,N/A,,Unknown,360,2012-10-29 02:35:00
9:55 PM,40.3,29.8,66,30.22,10.0,North,8.1,-,N/A,,Unknown,360,2012-10-29 02:55:00
10:15 PM,40.3,29.7,66,30.22,10.0,North,6.9,-,N/A,,Unknown,350,2012-10-29 03:15:00
10:35 PM,39.2,30.2,70,30.22,10.0,North,5.8,-,N/A,,Unknown,350,2012-10-29 03:35:00
10:55 PM,39.2,29.8,69,30.23,10.0,NNW,6.9,-,N/A,,Unknown,340,2012-10-29 03:55:00
11:15 PM,39.2,29.8,69,30.22,10.0,NNW,8.1,-,N/A,,Unknown,340,2012-10-29 04:15:00
11:35 PM,39.2,30.2,70,30.23,10.0,North,8.1,-,N/A,,Unknown,350,2012-10-29 04:35:00
11:55 PM,39.0,31.1,73,30.23,10.0,North,9.2,-,N/A,,Unknown,360,2012-10-29 04:55:00